Simultaneous Nadir Overpasses (SNOs) Predictions

Prediction of SNOs between NOAA-20 and METOP-C Satellite Orbit:

Table of predicted SNOs for the next 14.0 days since TLE Epoch: 6/7/2023
Index Date (NOAA-20) Time (NOAA-20) Lat,Lon (NOAA-20) SZA (NOAA-20 ) Date (METOP-C) Time (METOP-C) Lat,Lon (METOP-C) SZA (METOP-C ) Distance(km) Time Diff (sec)
1 06/20/2023 04:01:57 73.48, 109.97 50.25 06/20/2023 04:03:04 73.44, 112.46 50.07 78.90 67
2 06/20/2023 04:52:40 -73.42, -82.58 129.82 06/20/2023 04:53:48 -73.38, -80.34 129.99 71.34 68
3 06/20/2023 05:43:21 73.19, 85.26 49.92 06/20/2023 05:44:32 73.11, 86.40 49.77 37.63 71
4 06/20/2023 06:34:04 -73.13,-107.31 130.14 06/20/2023 06:35:16 -73.05,-106.40 130.28 30.49 72
5 06/20/2023 07:24:45 72.89, 60.52 49.60 06/20/2023 07:25:58 72.88, 60.57 49.57 1.90 73
6 06/20/2023 08:15:29 -72.89,-132.15 130.41 06/20/2023 08:16:41 -72.88,-132.12 130.44 1.67 72
7 06/20/2023 09:06:14 72.85, 35.24 49.55 06/20/2023 09:07:20 72.85, 35.17 49.54 2.31 66
8 06/20/2023 09:56:58 -72.84,-157.44 130.46 06/20/2023 09:58:03 -72.85,-157.51 130.46 2.55 65
9 06/20/2023 10:47:44 72.85, 9.85 49.56 06/20/2023 10:48:41 72.88, 9.88 49.57 2.76 57
10 06/20/2023 11:38:28 -72.85, 177.17 130.45 06/20/2023 11:39:24 -72.88, 177.20 130.44 2.79 56
11 06/20/2023 12:29:14 72.86, -15.54 49.57 06/20/2023 12:30:03 72.85, -15.51 49.54 1.52 49
12 06/20/2023 13:19:58 -72.86, 151.78 130.44 06/20/2023 13:20:46 -72.85, 151.81 130.46 1.26 48
13 06/20/2023 14:10:43 72.82, -40.82 49.52 06/20/2023 14:11:25 72.82, -40.91 49.52 2.87 42
14 06/20/2023 15:01:27 -72.82, 126.50 130.49 06/20/2023 15:02:08 -72.82, 126.41 130.49 3.09 41
15 06/20/2023 15:52:13 72.83, -66.21 49.53 06/20/2023 15:52:46 72.85, -66.20 49.54 2.56 33
16 06/20/2023 16:42:57 -72.82, 101.11 130.48 06/20/2023 16:43:29 -72.85, 101.12 130.47 2.73 32
17 06/20/2023 17:33:43 72.83, -91.60 49.53 06/20/2023 17:34:08 72.82, -91.59 49.52 1.31 25
18 06/20/2023 18:24:27 -72.83, 75.72 130.48 06/20/2023 18:24:51 -72.82, 75.73 130.49 1.02 24
19 06/20/2023 19:15:12 72.79,-116.88 49.49 06/20/2023 19:15:30 72.80,-116.99 49.49 3.42 18
20 06/20/2023 20:05:57 -72.84, 50.33 130.47 06/20/2023 20:06:12 -72.84, 50.44 130.47 3.54 15
21 06/20/2023 20:56:42 72.80,-142.27 49.49 06/20/2023 20:56:51 72.82,-142.27 49.51 2.46 9
22 06/20/2023 21:47:26 -72.79, 25.05 130.52 06/20/2023 21:47:34 -72.82, 25.04 130.49 2.78 8
23 06/20/2023 22:38:12 72.80,-167.66 49.50 06/20/2023 22:38:13 72.79,-167.67 49.49 1.34 1
24 06/20/2023 23:28:56 -72.80, -0.34 130.51 06/20/2023 23:28:56 -72.79, -0.35 130.52 1.04 0
25 06/21/2023 00:19:42 72.81, 166.95 49.51 06/21/2023 00:19:34 72.82, 167.04 49.51 3.09 8
26 06/21/2023 01:10:26 -72.81, -25.73 130.50 06/21/2023 01:10:17 -72.82, -25.64 130.49 3.04 9
27 06/21/2023 02:01:11 72.77, 141.67 49.46 06/21/2023 02:00:56 72.79, 141.65 49.49 2.49 15
28 06/21/2023 02:51:55 -72.76, -51.01 130.55 06/21/2023 02:51:39 -72.79, -51.03 130.52 2.91 16



Historial Predications of SNOs between NOAA-20 and METOP-C
